Showing default

CONNECTA T1.2, 55012

Orbit data source: Space-Track

CONNECTA T1.2, 55012 is a payload satellite owned by Plan-S (TR) in SSO that was launched on Tue, 03 Jan 2023 UTC via an FALCON 9 launch vehicle from the Air Force Eastern Test Range (AFETR). Payload-class satellites include a variety of spacecraft equipped with specific instruments for various scientific and technological missions. These include communications satellites like Starlink; space stations such as the ISS; scientific satellites like the Hubble; Earth observation satellites from companies like Planet Labs, Umbra, and HawkEye 360; GPS; miniature CubeSats for education and research; and military/defense satellites.

Loading next visibility...
Identifier
55012, 2023-001D
Orbit
SSO
Country
Flag of TRTR / TURK
Related business
Manufacturer
Plan-S
Mission
Operational Commercial Communications
Bus & Motor
CUBESAT 3U, Unknown motor
Mass
4 kg wet, 4 kg dry
Launch date (UTC)
2023-01-03 (4 years ago)
Launch vehicle
FALCON 9
Launch site
Air Force Eastern Test Range (AFETR)
Object type
Payload
Rocket body
Debris
Shape & HBR
Box, 1.2 m
Radar Cross Section
0.035 m², Medium (>0.1 m² and < 1m²)

Expand to show TLE details & history
Last TLE update: 8 hours ago

TLE from 8 hours ago
0 CONNECTA T1.2
1 55012U 23001D   26235.94022871  .00047100  00000-0  67605-3 0  9999
2 55012  97.3195 308.0622 0005659 188.7729 171.3427 15.55973139203061
Epoch: 2026-08-23T22:33Z
TLE epoch observation values (Epoch: 2026-08-23T22:33:55.760Z)
Latitude
-0.00011°
Longitude
-2.6492°
Altitude
406.259 km
Speed
7.665 km/s
True Right ascension
20h 32m 14s
True Declination
0° 00' 00"
Sunlit
Object was in full shadow at epoch
Visualization orbit readout
Latitude
Unknown
Longitude
Unknown
Altitude
Unknown
Speed
Unknown
Apparent Right ascension
Unknown
Apparent Declination
Unknown
Sunlit
N/A
Visualization observer readout
Local Sidereal Time
21:17:42
Azimuth
Unknown
Elevation
Unknown
Doppler factor
Unknown
Orbital elements
Apogee altitude
400.073 km
Perigee altitude
392.406 km
Semi-major axis
6,774.377 km
Eccentricity
0.00057
Inclination
97.3195°
RAAN
308.0622°
Arg. of periapsis
188.7729°
True anomaly
171.35245°
Mean anomaly
171.3427°
Eccentric anomaly
171.34758°
Mean motion
3.89259 °/min
Orbital period
92.48 mins
BSTAR
0.00067605
Loading maneuver chart data...
Computing Atmospheric mass density...

Documentation

Showing up to 5 results
|